HB9ITR Weather Reports


time (UTC)temp
F
wind
direction
speed
knots
gust
knots
rain 1hr
in
rain 24hr
in
rain mn
in
humidity
%
barometer
mb
20260505140653 0 270 6.1 71.3 0.00 0.00 0.00 8 1009.0
20260505140353 0 270 6.1 71.3 0.00 0.00 0.00 8 1009.0
20260505124853 0 270 3.5 46.9 0.00 0.00 0.00 9 1009.0
20260505124553 0 270 3.5 46.9 0.00 0.00 0.00 9 1009.0
20260505124253 0 270 3.5 46.9 0.00 0.00 0.00 9 1009.0
20260505123953 0 270 3.5 46.9 0.00 0.00 0.00 9 1009.0
20260505123653 0 270 3.5 31.3 0.00 0.00 0.00 9 1009.0
20260505123353 0 270 3.5 31.3 0.00 0.00 0.00 9 1009.0
20260505123053 0 270 3.5 31.3 0.00 0.00 0.00 9 1009.0
20260505122753 0 270 3.5 31.3 0.00 0.00 0.00 9 1009.0
20260505122453 0 270 3.5 31.3 0.00 0.00 0.00 8 1009.0
20260505122153 0 270 3.5 31.3 0.00 0.00 0.00 8 1009.0
20260505121853 0 270 4.3 43.4 0.00 0.00 0.00 8 1009.0
20260505121553 0 270 4.3 43.4 0.00 0.00 0.00 8 1009.0
20260505121253 0 270 4.3 43.4 0.00 0.00 0.00 8 1009.0
20260505120953 0 270 4.3 43.4 0.00 0.00 0.00 8 1009.0
20260505120653 0 270 4.3 43.4 0.00 0.00 0.00 8 1009.0
20260505120353 0 270 4.3 43.4 0.00 0.00 0.00 8 1009.0
20260505120053 0 270 4.3 43.4 0.00 0.00 0.00 8 1009.0
20260505115753 0 270 4.3 43.4 0.00 0.00 0.00 8 1009.0
20260505115454 0 270 4.3 43.4 0.00 0.00 0.00 8 1009.0
20260505115153 0 270 4.3 43.4 0.00 0.00 0.00 8 1009.0
20260505114853 0 270 4.3 43.4 0.00 0.00 0.00 8 1009.0
20260505114553 0 270 4.3 43.4 0.00 0.00 0.00 8 1009.0
20260505114253 0 270 4.3 43.4 0.00 0.00 0.00 8 1009.0
20260505113953 0 270 4.3 43.4 0.00 0.00 0.00 8 1009.0
20260505113653 0 270 4.3 43.4 0.00 0.00 0.00 8 1009.0
20260505113353 0 270 4.3 43.4 0.00 0.00 0.00 8 1009.0
20260505113053 0 270 5.2 43.4 0.00 0.00 0.00 8 1009.0
20260505112753 0 270 5.2 43.4 0.00 0.00 0.00 8 1009.0
20260505112453 0 270 5.2 43.4 0.00 0.00 0.00 8 1009.0
20260505112153 0 270 5.2 43.4 0.00 0.00 0.00 8 1009.0
20260505111853 0 270 5.2 43.4 0.00 0.00 0.00 8 1009.0
20260505111553 0 270 3.5 31.3 0.00 0.00 0.00 8 1009.0
20260505111253 0 270 3.5 31.3 0.00 0.00 0.00 8 1009.0
20260505110953 0 270 3.5 31.3 0.00 0.00 0.00 8 1009.0
20260505110653 0 270 3.5 31.3 0.00 0.00 0.00 8 1009.0
20260505110353 0 270 3.5 31.3 0.00 0.00 0.00 8 1009.0
20260505102154 0 270 2.6 24.3 0.00 0.00 0.00 8 1009.0
20260505101854 0 270 2.6 24.3 0.00 0.00 0.00 8 1009.0
20260505101554 0 270 2.6 24.3 0.00 0.00 0.00 8 1009.0
20260505101254 0 270 2.6 24.3 0.00 0.00 0.00 8 1009.0
20260505100954 0 270 2.6 24.3 0.00 0.00 0.00 8 1009.0
20260505100654 0 270 2.6 24.3 0.00 0.00 0.00 8 1009.0
20260505100354 0 270 2.6 24.3 0.00 0.00 0.00 8 1009.0
20260505100054 0 270 2.6 24.3 0.00 0.00 0.00 9 1009.0
20260505095754 0 270 2.6 24.3 0.00 0.00 0.00 9 1009.0
20260505095454 0 270 2.6 24.3 0.00 0.00 0.00 9 1009.0
20260505095154 0 270 2.6 24.3 0.00 0.00 0.00 9 1009.0
20260505094854 0 270 2.6 24.3 0.00 0.00 0.00 9 1009.0
20260505094554 0 270 2.6 24.3 0.00 0.00 0.00 9 1009.0
20260505094254 0 270 2.6 24.3 0.00 0.00 0.00 9 1009.0
20260505093954 0 225 1.7 24.3 0.00 0.00 0.00 9 1009.0
20260505093654 0 225 1.7 24.3 0.00 0.00 0.00 9 1009.0
20260505093354 0 225 1.7 24.3 0.00 0.00 0.00 9 1009.0
20260505093054 0 225 1.7 24.3 0.00 0.00 0.00 9 1009.0
20260505092754 0 225 1.7 24.3 0.00 0.00 0.00 9 1009.0
20260505092454 0 225 1.7 24.3 0.00 0.00 0.00 9 1009.0
20260505092154 0 90 0.9 21.7 0.00 0.00 0.00 9 1010.0
20260505091854 0 90 0.9 21.7 0.00 0.00 0.00 9 1010.0
20260505091554 0 90 0.9 21.7 0.00 0.00 0.00 9 1010.0
20260505091254 0 90 0.9 21.7 0.00 0.00 0.00 9 1010.0
20260505090954 0 90 0.9 21.7 0.00 0.00 0.00 9 1010.0
20260505090654 0 90 0.9 21.7 0.00 0.00 0.00 9 1010.0
20260505090354 0 90 0.9 21.7 0.00 0.00 0.00 9 1010.0
20260505090054 0 90 0.9 21.7 0.00 0.00 0.00 9 1010.0
20260505085754 0 90 0.9 21.7 0.00 0.00 0.00 9 1010.0
20260505085454 0 90 0.9 21.7 0.00 0.00 0.00 9 1010.0
20260505085153 0 90 0.9 21.7 0.00 0.00 0.00 9 1010.0
20260505084854 0 90 0.9 21.7 0.00 0.00 0.00 9 1010.0
20260505084553 0 90 0.9 21.7 0.00 0.00 0.00 9 1010.0
20260505084254 0 90 0.9 21.7 0.00 0.00 0.00 9 1010.0
20260505083954 0 90 0.9 21.7 0.00 0.00 0.00 9 1010.0
20260505083653 0 90 0.9 21.7 0.00 0.00 0.00 9 1010.0
20260505083353 0 225 0.9 8.7 0.00 0.00 0.00 9 1011.0
20260505083053 0 225 0.9 8.7 0.00 0.00 0.00 9 1011.0
20260505082753 0 225 0.9 8.7 0.00 0.00 0.00 9 1011.0
20260505082453 0 225 0.9 8.7 0.00 0.00 0.00 9 1011.0
20260505082154 0 225 0.9 8.7 0.00 0.00 0.00 9 1011.0
20260505081854 0 225 0.9 8.7 0.00 0.00 0.00 9 1011.0
20260505081553 0 225 0.9 8.7 0.00 0.00 0.00 9 1011.0
20260505081253 0 225 0.9 8.7 0.00 0.00 0.00 9 1011.0
20260505080954 0 225 0.9 8.7 0.00 0.00 0.00 9 1011.0
20260505080653 0 225 0.9 8.7 0.00 0.00 0.00 9 1011.0
20260505080353 0 225 0.9 8.7 0.00 0.00 0.00 9 1011.0
20260505080054 0 225 0.9 8.7 0.00 0.00 0.00 9 1011.0
20260505075753 0 225 0.9 8.7 0.00 0.00 0.00 9 1011.0
20260505075454 0 225 0.9 8.7 0.00 0.00 0.00 9 1011.0
20260505075153 0 225 0.9 8.7 0.00 0.00 0.00 9 1011.0
20260505074853 0 225 0.9 8.7 0.00 0.00 0.00 9 1011.0
20260505074553 0 225 0.9 8.7 0.00 0.00 0.00 9 1011.0
20260505074253 0 225 0.9 8.7 0.00 0.00 0.00 9 1011.0
20260505073953 0 225 0.9 8.7 0.00 0.00 0.00 9 1011.0
20260505073653 0 225 0.9 8.7 0.00 0.00 0.00 9 1011.0
20260505073353 0 225 0.9 8.7 0.00 0.00 0.00 9 1011.0
20260505073053 0 225 0.9 8.7 0.00 0.00 0.00 9 1011.0
20260505072753 0 315 0.9 12.2 0.00 0.00 0.00 9 1011.0
20260505072453 0 315 0.9 12.2 0.00 0.00 0.00 9 1011.0
20260505072153 0 315 0.9 12.2 0.00 0.00 0.00 9 1011.0
20260505071853 0 315 0.9 12.2 0.00 0.00 0.00 9 1011.0
20260505071553 0 315 0.9 12.2 0.00 0.00 0.00 9 1011.0
20260505071253 0 315 0.9 12.2 0.00 0.00 0.00 9 1011.0
20260505070953 0 315 0.9 12.2 0.00 0.00 0.00 9 1011.0
20260505070653 0 315 0.9 12.2 0.00 0.00 0.00 9 1011.0
20260505070353 0 315 0.9 12.2 0.00 0.00 0.00 10 1011.0
20260505070053 0 315 0.9 12.2 0.00 0.00 0.00 9 1011.0
20260505065753 0 315 0.9 12.2 0.00 0.00 0.00 10 1011.0
20260505065453 0 315 0.9 12.2 0.00 0.00 0.00 10 1011.0
20260505065153 0 315 0.9 12.2 0.00 0.00 0.00 10 1011.0
20260505064853 0 315 0.9 12.2 0.00 0.00 0.00 10 1011.0
20260505064553 0 315 0.9 12.2 0.00 0.00 0.00 10 1011.0
20260505064253 0 315 0.9 12.2 0.00 0.00 0.00 10 1011.0
20260505063953 0 270 0.9 8.7 0.00 0.00 0.00 10 1011.0
20260505063653 0 270 0.9 8.7 0.00 0.00 0.00 10 1011.0
20260505063353 0 270 0.9 8.7 0.00 0.00 0.00 10 1011.0
20260505063053 0 270 0.9 8.7 0.00 0.00 0.00 10 1011.0
20260505062753 0 270 0.9 8.7 0.00 0.00 0.00 10 1011.0
20260505062453 0 0 0.9 8.7 0.00 0.00 0.00 10 1011.0
20260505062153 0 0 0.9 8.7 0.00 0.00 0.00 10 1011.0
20260505061853 0 0 0.9 8.7 0.00 0.00 0.00 10 1011.0
20260505061553 0 0 0.9 8.7 0.00 0.00 0.00 10 1011.0
20260505061253 0 0 0.9 8.7 0.00 0.00 0.00 10 1011.0
20260505060953 0 0 0.9 8.7 0.00 0.00 0.00 10 1011.0
20260505060653 0 0 0.9 8.7 0.00 0.00 0.00 10 1011.0
20260505060353 0 0 0.9 8.7 0.00 0.00 0.00 10 1011.0
20260505060053 0 0 0.9 8.7 0.00 0.00 0.00 10 1011.0
20260505055753 0 0 0.9 8.7 0.00 0.00 0.00 10 1011.0
20260505055453 0 0 0.9 8.7 0.00 0.00 0.00 10 1011.0
20260505055153 0 0 0.9 8.7 0.00 0.00 0.00 10 1011.0
20260505054853 0 0 0.9 8.7 0.00 0.00 0.00 10 1011.0
20260505054553 0 0 0.9 8.7 0.00 0.00 0.00 10 1011.0
20260505054253 0 0 0.9 8.7 0.00 0.00 0.00 10 1011.0
20260505053953 0 0 0.9 8.7 0.00 0.00 0.00 10 1011.0
20260505053653 0 0 0.9 8.7 0.00 0.00 0.00 10 1011.0
20260505053353 0 0 0.9 8.7 0.00 0.00 0.00 10 1011.0
20260505053053 0 0 0.9 8.7 0.00 0.00 0.00 10 1011.0
20260505052753 0 0 0.9 8.7 0.00 0.00 0.00 10 1011.0
20260505052453 0 0 0.9 8.7 0.00 0.00 0.00 10 1011.0
20260505052154 0 0 0.9 8.7 0.00 0.00 0.00 10 1011.0
20260505051853 0 225 0.9 12.2 0.00 0.00 0.00 10 1011.0
20260505051553 0 225 0.9 12.2 0.00 0.00 0.00 10 1011.0
20260505051253 0 225 0.9 12.2 0.00 0.00 0.00 10 1011.0
20260505050953 0 225 0.9 12.2 0.00 0.00 0.00 10 1011.0
20260505050653 0 225 0.9 12.2 0.00 0.00 0.00 10 1011.0
20260505050353 0 225 0.9 12.2 0.00 0.00 0.00 10 1011.0
20260505041553 0 270 0.9 8.7 0.00 0.00 0.00 10 1012.0
20260505041253 0 270 0.9 8.7 0.00 0.00 0.00 10 1012.0
20260505040953 0 270 0.9 8.7 0.00 0.00 0.00 10 1012.0
20260505040653 0 270 0.9 8.7 0.00 0.00 0.00 10 1012.0
20260505040353 0 270 0.9 8.7 0.00 0.00 0.00 10 1012.0
20260505040053 0 270 0.9 8.7 0.00 0.00 0.00 10 1012.0
20260505035753 0 270 0.9 8.7 0.00 0.00 0.00 10 1012.0
20260505035454 0 270 0.9 8.7 0.00 0.00 0.00 10 1012.0
20260505035154 0 270 0.9 8.7 0.00 0.00 0.00 10 1012.0
20260505034854 0 270 0.9 8.7 0.00 0.00 0.00 10 1012.0
20260505034554 0 270 0.9 8.7 0.00 0.00 0.00 10 1012.0
20260505034254 0 270 0.9 8.7 0.00 0.00 0.00 10 1012.0
20260505033954 0 270 0.9 8.7 0.00 0.00 0.00 10 1012.0
20260505033654 0 270 0.9 8.7 0.00 0.00 0.00 10 1012.0
20260505033354 0 270 0.9 8.7 0.00 0.00 0.00 10 1012.0
20260505033054 0 270 0.9 8.7 0.00 0.00 0.00 10 1012.0
20260505032754 0 270 0.0 6.1 0.00 0.00 0.00 10 1012.0
20260505032454 0 270 0.0 6.1 0.00 0.00 0.00 10 1012.0
20260505032154 0 270 0.0 6.1 0.00 0.00 0.00 10 1012.0
20260505031854 0 270 0.0 6.1 0.00 0.00 0.00 10 1012.0
20260505031554 0 270 0.0 6.1 0.00 0.00 0.00 10 1012.0
20260505031254 0 270 0.0 6.1 0.00 0.00 0.00 10 1012.0
20260505030954 0 270 0.0 6.1 0.00 0.00 0.00 10 1012.0
20260505030654 0 270 0.0 6.1 0.00 0.00 0.00 10 1012.0
20260505030354 0 270 0.0 6.1 0.00 0.00 0.00 10 1012.0
20260505030054 0 270 0.0 6.1 0.00 0.00 0.00 10 1012.0
20260505025754 0 270 0.0 6.1 0.00 0.00 0.00 10 1012.0
20260505025454 0 270 0.0 6.1 0.00 0.00 0.00 10 1012.0
20260505025154 0 270 0.0 6.1 0.00 0.00 0.00 10 1012.0
20260505024854 0 270 0.0 6.1 0.00 0.00 0.00 10 1012.0
20260505024554 0 270 0.0 6.1 0.00 0.00 0.00 10 1012.0
20260505024254 0 270 0.0 6.1 0.00 0.00 0.00 10 1012.0
20260505023954 0 270 0.0 6.1 0.00 0.00 0.00 10 1012.0
20260505023654 0 270 0.0 6.1 0.00 0.00 0.00 10 1012.0
20260505023354 0 270 0.0 6.1 0.00 0.00 0.00 10 1012.0
20260505023054 0 270 0.0 6.1 0.00 0.00 0.00 10 1012.0
20260505022754 0 270 0.0 6.1 0.00 0.00 0.00 10 1012.0
20260505022454 0 270 0.0 6.1 0.00 0.00 0.00 10 1012.0
20260505022154 0 270 0.0 6.1 0.00 0.00 0.00 10 1012.0
20260505021854 0 45 0.9 12.2 0.00 0.00 0.00 10 1012.0
20260505021554 0 45 0.9 12.2 0.00 0.00 0.00 10 1012.0
20260505021254 0 45 0.9 12.2 0.00 0.00 0.00 10 1012.0
20260505020953 0 45 0.9 12.2 0.00 0.00 0.00 10 1012.0
20260505020653 0 45 0.9 12.2 0.00 0.00 0.00 10 1012.0
20260505020353 0 45 0.9 12.2 0.00 0.00 0.00 10 1012.0
20260505020053 0 45 0.9 12.2 0.00 0.00 0.00 10 1012.0
20260505015753 0 45 0.9 12.2 0.00 0.00 0.00 10 1012.0
20260505015453 0 45 0.9 12.2 0.00 0.00 0.00 10 1012.0
20260505015153 0 45 0.9 12.2 0.00 0.00 0.00 10 1012.0
20260505014853 0 45 0.9 12.2 0.00 0.00 0.00 10 1012.0
20260505014553 0 45 0.9 12.2 0.00 0.00 0.00 10 1012.0
20260505014253 0 45 0.9 12.2 0.00 0.00 0.00 10 1012.0
20260505013953 0 45 0.9 12.2 0.00 0.00 0.00 10 1012.0
20260505013653 0 45 0.9 12.2 0.00 0.00 0.00 10 1012.0
20260505013353 0 45 0.9 12.2 0.00 0.00 0.00 10 1012.0
20260505013053 0 45 0.9 12.2 0.00 0.00 0.00 10 1012.0
20260505012753 0 45 0.9 12.2 0.00 0.00 0.00 10 1012.0
20260505012453 0 45 0.9 12.2 0.00 0.00 0.00 10 1012.0
20260505012153 0 45 0.9 12.2 0.00 0.00 0.00 10 1012.0
20260505011853 0 45 0.9 12.2 0.00 0.00 0.00 10 1012.0
20260505011553 0 45 0.9 15.6 0.00 0.00 0.00 10 1013.0
20260505011253 0 45 0.9 15.6 0.00 0.00 0.00 10 1013.0
20260505010953 0 45 0.9 15.6 0.00 0.00 0.00 10 1013.0
20260505010653 0 45 0.9 15.6 0.00 0.00 0.00 10 1013.0
20260505010353 0 45 0.9 15.6 0.00 0.00 0.00 10 1013.0
20260505010053 0 45 0.9 15.6 0.00 0.00 0.00 10 1013.0
20260505005753 0 45 0.9 15.6 0.00 0.00 0.00 10 1013.0
20260505005453 0 45 0.9 15.6 0.00 0.00 0.00 10 1013.0
20260505005153 0 45 0.9 15.6 0.00 0.00 0.00 10 1013.0
20260505004853 0 45 0.9 15.6 0.00 0.00 0.00 10 1013.0
20260505004553 0 45 0.9 15.6 0.00 0.00 0.00 10 1013.0
20260505004253 0 45 0.9 15.6 0.00 0.00 0.00 10 1013.0
20260505003953 0 45 0.9 15.6 0.00 0.00 0.00 10 1013.0
20260505003653 0 45 0.9 15.6 0.00 0.00 0.00 10 1013.0
20260505003353 0 45 0.9 15.6 0.00 0.00 0.00 10 1013.0
20260505003053 0 45 0.9 15.6 0.00 0.00 0.00 10 1013.0
20260505002753 0 45 0.9 12.2 0.00 0.00 0.00 10 1014.0
20260505002453 0 45 0.9 12.2 0.00 0.00 0.00 10 1014.0
20260505002153 0 45 0.9 12.2 0.00 0.00 0.00 10 1014.0
20260505001853 0 45 0.9 12.2 0.00 0.00 0.00 10 1014.0
20260505001553 0 45 0.9 12.2 0.00 0.00 0.00 10 1014.0
20260505001253 0 45 0.9 12.2 0.00 0.00 0.00 10 1014.0
20260505000953 0 45 0.9 12.2 0.00 0.00 0.00 10 1014.0
20260505000653 0 45 0.9 12.2 0.00 0.00 0.00 10 1014.0
20260505000353 0 45 0.9 12.2 0.00 0.00 0.00 10 1014.0
20260505000053 0 45 0.9 12.2 0.00 0.00 0.00 10 1014.0
20260504235753 0 45 0.9 12.2 0.00 0.00 0.00 10 1014.0
20260504235453 0 45 0.9 12.2 0.00 0.00 0.00 10 1014.0
20260504235153 0 45 0.9 12.2 0.00 0.00 0.00 10 1014.0
20260504234853 0 45 0.9 12.2 0.00 0.00 0.00 10 1014.0
20260504234553 0 45 0.9 12.2 0.00 0.00 0.00 10 1014.0
20260504234253 0 45 0.9 12.2 0.00 0.00 0.00 10 1014.0
20260504233953 0 45 0.9 12.2 0.00 0.00 0.00 10 1014.0
20260504233653 0 45 0.9 12.2 0.00 0.00 0.00 10 1014.0
20260504233353 0 45 0.9 12.2 0.00 0.00 0.00 10 1014.0
20260504233053 0 45 0.9 12.2 0.00 0.00 0.00 10 1014.0
20260504232753 0 45 0.9 12.2 0.00 0.00 0.00 10 1014.0
20260504232453 0 45 0.9 8.7 0.00 0.00 0.00 10 1014.0
20260504232153 0 45 0.9 8.7 0.00 0.00 0.00 10 1014.0
20260504231853 0 45 0.9 8.7 0.00 0.00 0.00 10 1014.0
20260504231553 0 45 0.9 8.7 0.00 0.00 0.00 10 1014.0
20260504231253 0 45 0.9 8.7 0.00 0.00 0.00 10 1014.0
20260504230953 0 45 0.9 8.7 0.00 0.00 0.00 10 1014.0
20260504230653 0 45 0.9 8.7 0.00 0.00 0.00 10 1014.0
20260504230353 0 45 0.9 8.7 0.00 0.00 0.00 10 1014.0
20260504230053 0 45 0.9 8.7 0.00 0.00 0.00 10 1014.0
20260504225753 0 45 0.9 8.7 0.00 0.00 0.00 10 1014.0
20260504225453 0 45 0.9 8.7 0.00 0.00 0.00 10 1014.0
20260504225153 0 45 0.9 8.7 0.00 0.00 0.00 10 1014.0
20260504224853 0 45 0.9 8.7 0.00 0.00 0.00 10 1014.0
20260504224553 0 45 0.9 8.7 0.00 0.00 0.00 10 1014.0
20260504224253 0 45 0.9 8.7 0.00 0.00 0.00 10 1014.0
20260504223953 0 45 0.9 8.7 0.00 0.00 0.00 10 1014.0
20260504223653 0 45 0.9 8.7 0.00 0.00 0.00 10 1014.0
20260504223353 0 45 0.9 8.7 0.00 0.00 0.00 10 1014.0
20260504223053 0 45 0.9 8.7 0.00 0.00 0.00 10 1014.0
20260504222753 0 45 0.9 8.7 0.00 0.00 0.00 10 1014.0
20260504222453 0 45 0.9 8.7 0.00 0.00 0.00 10 1014.0
20260504222153 0 45 0.9 8.7 0.00 0.00 0.00 10 1014.0
20260504221853 0 0 0.9 8.7 0.00 0.00 0.00 10 1014.0
20260504221553 0 0 0.9 8.7 0.00 0.00 0.00 10 1014.0
20260504221253 0 0 0.9 8.7 0.00 0.00 0.00 10 1014.0
20260504220953 0 0 0.9 8.7 0.00 0.00 0.00 10 1014.0
20260504220653 0 0 0.9 8.7 0.00 0.00 0.00 10 1014.0
20260504220353 0 0 0.9 8.7 0.00 0.00 0.00 10 1014.0
20260504220053 0 0 0.9 8.7 0.00 0.00 0.00 10 1014.0
20260504215753 0 0 0.9 8.7 0.00 0.00 0.00 10 1014.0
20260504215453 0 0 0.9 8.7 0.00 0.00 0.00 10 1014.0
20260504215153 0 0 0.9 8.7 0.00 0.00 0.00 10 1014.0
20260504214853 0 0 0.9 8.7 0.00 0.00 0.00 10 1014.0
20260504214553 0 0 0.9 8.7 0.00 0.00 0.00 10 1014.0
20260504214253 0 0 0.9 8.7 0.00 0.00 0.00 10 1014.0
20260504213953 0 0 0.9 8.7 0.00 0.00 0.00 10 1014.0
20260504213653 0 0 0.9 8.7 0.00 0.00 0.00 10 1014.0
20260504213353 0 0 0.9 8.7 0.00 0.00 0.00 10 1014.0
20260504213053 0 45 0.9 8.7 0.00 0.00 0.00 10 1014.0
20260504212753 0 45 0.9 8.7 0.00 0.00 0.00 10 1014.0
20260504212454 0 45 0.9 8.7 0.00 0.00 0.00 10 1014.0
20260504212154 0 45 0.9 8.7 0.00 0.00 0.00 10 1014.0
20260504211854 0 45 0.9 8.7 0.00 0.00 0.00 10 1014.0
20260504211554 0 0 0.9 8.7 0.00 0.00 0.00 10 1014.0
20260504211254 0 0 0.9 8.7 0.00 0.00 0.00 10 1014.0
20260504210954 0 0 0.9 8.7 0.00 0.00 0.00 10 1014.0
20260504210654 0 0 0.9 8.7 0.00 0.00 0.00 10 1014.0
20260504210354 0 0 0.9 8.7 0.00 0.00 0.00 10 1014.0
20260504210054 0 0 0.9 8.7 0.00 0.00 0.00 10 1014.0
20260504205754 0 0 0.9 8.7 0.00 0.00 0.00 10 1014.0
20260504205454 0 0 0.9 8.7 0.00 0.00 0.00 10 1014.0
20260504205154 0 0 0.9 8.7 0.00 0.00 0.00 9 1014.0
20260504204854 0 0 0.9 8.7 0.00 0.00 0.00 9 1014.0
20260504204554 0 0 0.9 8.7 0.00 0.00 0.00 9 1014.0
20260504204254 0 0 0.9 8.7 0.00 0.00 0.00 9 1014.0
20260504203954 0 0 0.9 8.7 0.00 0.00 0.00 9 1014.0
20260504203654 0 0 0.9 8.7 0.00 0.00 0.00 9 1014.0
20260504203354 0 0 0.9 8.7 0.00 0.00 0.00 9 1014.0
20260504203054 0 0 0.9 8.7 0.00 0.00 0.00 9 1014.0
20260504202754 0 0 0.9 8.7 0.00 0.00 0.00 9 1014.0
20260504202454 0 0 0.9 8.7 0.00 0.00 0.00 9 1014.0
20260504202154 0 0 0.9 8.7 0.00 0.00 0.00 9 1014.0
20260504201854 0 0 0.9 8.7 0.00 0.00 0.00 9 1014.0
20260504201554 0 0 0.9 8.7 0.00 0.00 0.00 9 1014.0
20260504201254 0 0 0.9 8.7 0.00 0.00 0.00 9 1014.0
20260504200954 0 0 0.9 8.7 0.00 0.00 0.00 9 1014.0
20260504200654 0 0 0.9 8.7 0.00 0.00 0.00 9 1014.0
20260504200354 0 0 0.9 8.7 0.00 0.00 0.00 9 1014.0
20260504200054 0 0 0.9 8.7 0.00 0.00 0.00 9 1014.0
20260504195754 0 0 0.9 8.7 0.00 0.00 0.00 9 1014.0
20260504195453 0 0 0.9 8.7 0.00 0.00 0.00 9 1014.0
20260504195153 0 0 0.9 8.7 0.00 0.00 0.00 9 1014.0
20260504194853 0 0 0.9 8.7 0.00 0.00 0.00 9 1014.0
20260504194554 0 0 0.9 8.7 0.00 0.00 0.00 9 1014.0
20260504194253 0 0 0.9 8.7 0.00 0.00 0.00 9 1014.0
20260504193953 0 0 0.9 8.7 0.00 0.00 0.00 9 1014.0
20260504193653 0 0 0.9 8.7 0.00 0.00 0.00 9 1014.0
20260504193353 0 0 0.9 8.7 0.00 0.00 0.00 9 1014.0
20260504193053 0 0 0.9 8.7 0.00 0.00 0.00 9 1014.0
20260504192753 0 0 0.9 8.7 0.00 0.00 0.00 9 1014.0
20260504192453 0 0 0.9 12.2 0.00 0.00 0.00 9 1014.0
20260504192153 0 0 0.9 12.2 0.00 0.00 0.00 9 1014.0
20260504191853 0 0 0.9 12.2 0.00 0.00 0.00 9 1014.0
20260504191553 0 0 0.9 12.2 0.00 0.00 0.00 9 1014.0
20260504191253 0 0 0.9 12.2 0.00 0.00 0.00 9 1014.0
20260504190953 0 0 0.9 12.2 0.00 0.00 0.00 9 1014.0
20260504190653 0 0 0.9 12.2 0.00 0.00 0.00 9 1014.0
20260504190354 0 0 0.9 12.2 0.00 0.00 0.00 9 1014.0
20260504190053 0 0 0.9 12.2 0.00 0.00 0.00 9 1014.0
20260504185753 0 0 0.9 12.2 0.00 0.00 0.00 9 1014.0
20260504185453 0 0 0.9 12.2 0.00 0.00 0.00 9 1014.0
20260504185153 0 0 0.9 12.2 0.00 0.00 0.00 9 1014.0
20260504184853 0 0 0.9 12.2 0.00 0.00 0.00 9 1014.0
20260504184554 0 0 0.9 12.2 0.00 0.00 0.00 9 1014.0
20260504184253 0 0 0.9 12.2 0.00 0.00 0.00 9 1014.0
20260504183953 0 0 0.9 12.2 0.00 0.00 0.00 9 1014.0
20260504183653 0 0 0.9 12.2 0.00 0.00 0.00 9 1014.0
20260504183353 0 0 0.9 12.2 0.00 0.00 0.00 9 1014.0
20260504183053 0 0 0.9 12.2 0.00 0.00 0.00 9 1014.0
20260504182753 0 0 0.9 12.2 0.00 0.00 0.00 9 1014.0
20260504182453 0 0 0.9 12.2 0.00 0.00 0.00 9 1014.0
20260504182153 0 0 0.9 12.2 0.00 0.00 0.00 9 1014.0
20260504181853 0 270 6.1 53.0 0.00 0.00 0.00 9 1014.0
20260504181554 0 270 6.1 53.0 0.00 0.00 0.00 9 1014.0
20260504181253 0 270 6.1 53.0 0.00 0.00 0.00 9 1014.0
20260504180953 0 270 6.1 53.0 0.00 0.00 0.00 9 1014.0
20260504180653 0 270 6.1 53.0 0.00 0.00 0.00 9 1014.0
20260504180353 0 270 6.1 53.0 0.00 0.00 0.00 9 1014.0
20260504180053 0 270 6.1 53.0 0.00 0.00 0.00 9 1014.0
20260504175753 0 270 6.1 53.0 0.00 0.00 0.00 9 1014.0
20260504175453 0 270 6.1 53.0 0.00 0.00 0.00 9 1014.0
20260504175153 0 270 6.1 53.0 0.00 0.00 0.00 9 1014.0
20260504174853 0 270 6.1 53.0 0.00 0.00 0.00 9 1014.0
20260504174553 0 270 6.1 53.0 0.00 0.00 0.00 9 1014.0
20260504174253 0 270 6.1 53.0 0.00 0.00 0.00 9 1014.0
20260504173953 0 270 6.1 53.0 0.00 0.00 0.00 9 1014.0
20260504173653 0 270 6.1 53.0 0.00 0.00 0.00 9 1014.0
20260504173353 0 270 6.1 53.0 0.00 0.00 0.00 9 1014.0
20260504173053 0 270 6.1 53.0 0.00 0.00 0.00 9 1014.0
20260504172753 0 270 6.1 53.0 0.00 0.00 0.00 9 1014.0
20260504172453 0 270 6.1 53.0 0.00 0.00 0.00 9 1014.0
20260504172153 0 270 6.1 53.0 0.00 0.00 0.00 9 1014.0
20260504171853 0 270 6.1 53.0 0.00 0.00 0.00 9 1014.0
20260504171553 0 270 7.8 93.8 0.00 0.00 0.00 9 1015.0
20260504171253 0 270 7.8 93.8 0.00 0.00 0.00 9 1015.0
20260504170953 0 270 7.8 93.8 0.00 0.00 0.00 9 1015.0
20260504170653 0 270 7.8 93.8 0.00 0.00 0.00 9 1015.0
20260504170353 0 270 7.8 93.8 0.00 0.00 0.00 9 1015.0
20260504160353 0 270 11.3 96.5 0.00 0.00 0.00 8 1015.0
20260504150953 0 270 12.2 80.8 0.00 0.00 0.00 9 1014.0
20260504150653 0 270 12.2 80.8 0.00 0.00 0.00 9 1014.0
20260504150354 0 270 12.2 80.8 0.00 0.00 0.00 9 1014.0